Retour au catalogue

YAM-6

ActifRadio amateurSSO
NORAD 59126·PAYLOAD·🇺🇸 United States

Lancé Mar 4, 2024 depuis Vandenberg Space Force Base

Loading…

Prochains Passages (prochaines 24 heures)

TLE

FraisSource: Space-Track

Époque: Sep 14, 2026, 09:24 UTC

1 59126U 24043AE  26257.39167438  .00007142  00000-0  19046-3 0  9996
2 59126  97.5695  41.1707 0006600 269.8723  90.1765 15.38456661141026

Suivez YAM-6 en temps réel avec AllMySat

Download on the App Store